Regional Weather Roundup
Issued by NWS

Home | Current Version | Previous Version | Graphics & Text | Print | Product List | Glossary On
Versions: 1 2 3 4 5 6 7 8 9 10 11 12 13 14 15 16 17 18 19 20 21 22 23 24 25 26 27 28 29 30 31 32 33 34 35 36 37 38 39 40 41 42 43 44 45 46 47 48 49 50
000
ASUS44 KMEG 242210
RWRTN
TENNESSEE HOURLY STATE WEATHER ROUNDUP
NATIONAL WEATHER SERVICE MEMPHIS TN
500 PM CDT TUE MAY 24 2016

TNZ002-004-019-021-049-052-054-088>092-242300-
WEST TENNESSEE

CITY           SKY/WX    TMP DP  RH WIND       PRES   REMARKS
MEMPHIS INTL   CLOUDY    87  64  46 S13       30.01S
NWS MEMPHIS      N/A     87 N/A N/A MISG        N/A
JACKSON        CLOUDY    82  63  52 S3        30.03F
DYERSBURG      CLOUDY    81  63  54 CALM      30.04R
UNION CITY     SUNNY     82  63  51 SW3       30.04R
PARIS          SUNNY     81  57  44 SW9       30.04F
LEXINGTON      SUNNY     82  57  42 S8        30.04S
$$

TNZ008-025-027-028-033-062-065-066-242300-
NORTH MIDDLE TENNESSEE

CITY           SKY/WX    TMP DP  RH WIND       PRES   REMARKS
NASHVILLE      MOSUNNY   85  49  28 W7        30.07F
CLARKSVILLE    MOSUNNY   81  59  47 VRB3      30.05F
SMYRNA         SUNNY     87  53  31 SW8       30.08S
COOKEVILLE     SUNNY     84  54  34 CALM      30.10S
CROSSVILLE     SUNNY     78  49  35 SW5       30.15R
$$

TNZ061-075-076-078-094-096-097-242300-
SOUTH MIDDLE TENNESSEE

CITY           SKY/WX    TMP DP  RH WIND       PRES   REMARKS
FAYETTEVILLE   SUNNY     84  50  30 VRB6G13   30.09F
TULLAHOMA      SUNNY     82  46  28 SW7       30.11F
WINCHESTER     MOSUNNY   86  52  30 S6        30.10S
MCMINNVILLE    SUNNY     84  55  37 SW9       30.11S
COLUMBIA       SUNNY     84  57  39 S6        30.05F
SHELBYVILLE    SUNNY     88  54  31 S6        30.09F
$$

TNZ017-018-042-046-047-242300-
NORTHEAST TENNESSEE

CITY           SKY/WX    TMP DP  RH WIND       PRES   REMARKS
TRI CITIES     MOSUNNY   77  49  37 SW5       30.13S
$$

TNZ012-013-036-069-073-074-242300-
CENTRAL EAST TENNESSEE

CITY           SKY/WX    TMP DP  RH WIND       PRES   REMARKS
KNOXVILLE      MOSUNNY   82  47  29 W7        30.10S
OAK RIDGE      SUNNY     83  50  31 VRB3      30.11R
GATLINBURG     SUNNY     81  43  26 NW7       30.10S
$$

TNZ083-085-099-242300-
SOUTHEAST TENNESSEE

CITY           SKY/WX    TMP DP  RH WIND       PRES   REMARKS
CHATTANOOGA    MOSUNNY   87  49  26 VRB7      30.09S
$$

SKY/WX REPORTED AS FAIR MEANS FEW OR NO CLOUDS BELOW
12 THOUSAND FEET.





USA.gov is the U.S. government's official web portal to all federal, state and local government web resources and services.